Location: Loup Canal
(41.4930°N, 97.5670°W)
Time: 13:45:55
(UTC-05:00)

Daily predictions for brighter satellites

Satellite Brightness Start Highest point End
(mag) Time Altitude Azimuth Time Altitude Azimuth Time Altitude Azimuth
YAOGAN 6 3.2 21:25:06 10° SE 21:28:37 42° ENE 21:32:08 10° N
COSMOS 2487 4.5 21:26:19 10° NW 21:29:25 28° WSW 21:32:29 10° SSW
Cosmos 1933 4.1 21:26:22 10° NNW 21:30:19 54° W 21:34:13 10° S
Cosmos 1939 Rocket 2.9 21:27:02 10° SSE 21:31:10 73° ENE 21:35:17 10° N
ATLAS 5 CENTAUR R/B 3.4 21:29:44 10° NNW 21:35:02 33° NE 21:40:46 10° ESE
Okean 1-7 3.8 21:34:32 10° N 21:38:37 36° ENE 21:42:40 10° SE
Cosmos 2346 Rocket 4.4 21:32:44 10° S 21:38:45 75° E 21:44:49 10° N
GPS 2-04 Rocket1 3.4 21:35:36 10° WSW 21:39:00 32° S 21:42:02 11° ESE
Aureole 1 4.3 21:38:56 10° S 21:41:52 56° ESE 21:45:15 10° NNE
Cosmos 1937 Rocket 4.1 21:37:09 10° SSW 21:42:13 62° WNW 21:47:21 10° NNE
Aureole 3 3.5 21:41:19 10° SSE 21:44:02 29° E 21:46:41 10° NNE
H-2A R/B 3.6 21:42:15 10° ESE 21:46:16 22° ENE 21:50:14 10° NNE
Meteor 1-29 3.2 21:44:00 10° NNE 21:47:25 50° E 21:50:48 10° S
Cosmos 1703 Rocket 3.5 21:47:10 10° N 21:51:36 75° E 21:55:57 10° SSE
ARGOS 4.0 21:47:36 12° SE 21:52:06 35° ENE 21:56:57 10° N
Cosmos 1408 3.2 21:52:28 10° SSE 21:55:54 37° E 21:59:22 10° NNE
DNEPR-1 R/B 4.1 21:52:21 10° S 21:57:28 47° ESE 22:01:52 10° NE
Cosmos 1782 3.0 21:57:53 10° N 22:01:49 51° E 22:04:51 16° SSE
Meteor 2-3 Rocket 4.2 21:56:12 10° SSW 22:01:52 67° W 22:07:32 10° N
Cosmos 1733 Rocket 4.4 22:01:47 16° ESE 22:03:38 21° E 22:06:52 10° NE
Cosmos 1825 2.4 22:03:10 11° SSE 22:06:34 47° E 22:10:13 10° NNE
ERS-1 Rocket 3.0 22:03:32 12° SSE 22:08:07 71° ENE 22:13:09 10° N
SL-08 RB Rocket 4.5 22:07:02 17° SE 22:10:04 37° ENE 22:14:22 10° N
Cosmos 1869 Rocket 3.5 22:06:05 10° S 22:10:24 87° W 22:14:48 10° N
Helios 1B rocket 3.0 22:09:14 10° N 22:13:18 59° WNW 22:17:19 10° SSW
Cosmos 2084 3.5 22:11:25 10° NW 22:15:12 60° WSW 22:17:51 19° SSE
Cosmos 1048 Rocket 4.1 22:11:01 10° NNW 22:16:20 63° ENE 22:19:55 20° SE
Cosmos 1862 3.8 22:19:34 23° SSE 22:21:36 41° E 22:25:21 10° NNE
Lacrosse 4 Rocket 2.0 22:19:05 10° NNW 22:23:28 48° ENE 22:25:48 24° ESE
ISS -2.5 22:22:28 10° WSW 22:25:34 42° NNW 22:28:41 10° NE
Cosmos 2221 Rocket 3.9 22:22:04 10° NNW 22:26:27 65° W 22:30:22 13° S
MetOp-A 4.1 22:22:13 16° SSE 22:26:33 88° ENE 22:31:56 10° NNW
USA 215 3.3 22:22:28 19° ESE 22:27:25 79° NE 22:34:00 10° NW
deb Kosmos-1763 4.0 22:31:02 10° NNW 22:34:49 89° WSW 22:36:29 32° SSE
Cosmos 1943 Rocket 2.1 22:29:18 10° SSW 22:34:54 90° ENE 22:40:29 10° NNE
Terra 3.1 22:33:08 20° E 22:34:57 25° ENE 22:38:51 10° NNE
Tiangong 2 2.9 22:32:56 10° W 22:35:21 20° SSW 22:35:46 19° SSW
Cosmos 1674 Rocket 4.2 22:36:19 10° N 22:40:22 37° ENE 22:41:35 31° ESE
Cosmos 1340 2.6 22:38:06 10° NNW 22:41:55 82° W 22:43:37 31° S
Cosmos 2344 3.5 22:35:03 10° SSW 22:42:37 69° ESE 22:50:56 10° NE
Cosmos 1437 4.3 22:40:48 10° NNE 22:43:12 22° ENE 22:43:12 22° ENE
SPOT 1/Viking Rocket 3.6 22:41:31 28° SSE 22:44:14 66° ENE 22:49:25 10° N
Cosmos 372 Rocket 4.1 22:41:08 10° SSW 22:46:15 73° WNW 22:51:22 10° NNE
SPOT 5 3.1 22:47:24 25° S 22:50:41 83° WSW 22:56:01 10° NNW
Cosmos 1269 Rocket 4.2 22:47:13 10° NNW 22:52:29 68° WSW 22:55:23 27° S
CENTAUR R/B 2.9 22:47:24 10° SW 22:53:25 68° NW 23:00:18 10° NNE
H-2A R/B 3.5 22:53:59 21° E 22:54:37 22° ENE 22:57:48 10° NNE
Cosmos 1092 Rocket 4.2 22:51:58 29° SSE 22:54:50 51° E 23:00:44 10° NNE
COSMOS 2455 4.4 22:49:22 10° WSW 22:54:54 37° NW 23:00:28 10° NNE
Nadezhda 4 Rocket 3.9 22:51:20 21° S 22:55:36 74° E 23:01:46 10° N
YAOGAN 11 4.3 22:54:13 30° S 22:56:25 74° WSW 23:00:56 10° NNW
Cosmos 1606 4.1 22:53:06 10° NNW 22:56:33 34° W 22:58:52 17° SSW
Cosmos 2369 Rocket 3.8 22:51:51 10° SW 22:57:02 36° WNW 23:02:17 10° N
Cosmos 1125 Rocket 4.4 22:52:07 10° SW 22:57:11 49° WNW 23:02:16 10° N
GEOS 3 Rocket 4.2 22:54:47 26° ESE 22:57:17 46° NE 23:02:16 10° NNW
Lacrosse 5 rocket 3.2 22:58:11 10° W 23:01:19 27° NW 23:04:32 10° NNE
Milstar 3 3.8 22:52:23 10° WSW 23:01:26 32° S 23:03:20 29° SSE
Cosmos 1833 4.3 22:57:33 10° NNW 23:03:21 78° WSW 23:05:59 34° SSE
Okean 3 4.0 22:59:26 10° N 23:03:25 40° ENE 23:03:50 39° E
IGS 5A 3.9 23:05:43 42° E 23:06:18 45° ENE 23:10:17 10° N
Cosmos 2297 Rocket 4.2 23:11:55 10° N 23:15:30 17° NE 23:18:14 12° E
Cosmos 1908 Rocket 3.6 23:15:40 54° ESE 23:16:06 57° E 23:20:28 10° NNE
ATLAS 5 CENTAUR R/B 2.8 23:14:08 10° NW 23:20:02 54° WSW 23:22:41 33° S
Cosmos 1867 3.6 23:15:43 10° NNW 23:21:11 70° NE 23:22:44 46° ESE
Meteor 1-27 Rocket 4.4 23:17:08 10° NNW 23:22:39 49° W 23:25:43 24° SSW
Okean 2 Rocket 4.4 23:25:49 26° ENE 23:25:49 26° ENE 23:28:51 10° NNE
H-2A R/B 2.7 23:22:48 29° SSW 23:25:18 52° W 23:30:31 10° NNW
Cosmos 494 Rocket 3.9 23:22:58 10° NNW 23:28:13 90° NNE 23:29:25 55° SSE
Cosmos 1656 Rocket 3.9 23:29:16 17° SW 23:33:25 68° WNW 23:38:57 10° NNE
deb Chang Zheng 4 4.0 23:33:28 10° NNE 23:37:23 50° ENE 23:37:23 50° ENE
Cosmos 1782 Rocket 3.6 23:43:46 63° ENE 23:43:46 63° ENE 23:47:49 10° NNE
Meteor 1-20 Rocket 4.3 23:44:03 54° SE 23:44:47 58° E 23:50:23 10° NNE
Cosmos 2195 Rocket 4.4 23:42:42 45° S 23:44:51 86° E 23:51:14 10° N
CZ-4B R/B 3.8 23:40:38 10° NNE 23:45:06 48° E 23:45:06 48° E
Sich 1 Rocket 3.8 23:49:49 60° WSW 23:50:18 65° W 23:54:43 10° N
Meteor 1-25 Rocket 4.2 23:49:31 59° SSE 23:50:33 73° E 23:56:23 10° NNE
